Location: ????????
(55.6719°N, 38.0078°E)
Time: 05:15:13
(UTC+00:00)

Daily predictions for brighter satellites

Satellite Brightness Start Highest point End
(mag) Time Altitude Azimuth Time Altitude Azimuth Time Altitude Azimuth
Cosmos 2322 Rocket 4.5 00:40:38 18° NNE 00:40:38 18° NNE 00:43:24 10° ENE
ATLAS 3B R/B 3.6 00:55:12 48° NNE 00:55:12 48° NNE 01:01:19 10° ENE
SL-16 R/B 4.0 01:05:03 25° NNE 01:05:03 25° NNE 01:09:25 10° E
Cosmos 1833 Rocket 4.0 01:11:36 36° E 01:11:36 36° E 01:15:59 10° NE
ACS3 Solar Sail 3.5 01:05:30 10° NNE 01:07:31 22° N 01:07:31 22° N
CZ-2C R/B 4.3 01:09:54 10° NNE 01:12:34 27° NE 01:12:34 27° NE
NOSS 3-1 (A) 4.2 01:27:45 49° NNE 01:27:49 49° NNE 01:35:15 10° E
ADEOS Rocket 3.7 01:23:45 10° NNE 01:29:51 59° NNW 01:29:51 59° NNW
USA 59 Rocket 2.6 01:35:38 15° ESE 01:35:38 15° ESE 01:36:26 10° ESE
Cosmos 1980 Rocket 3.1 01:35:03 43° ESE 01:35:03 43° ESE 01:38:49 10° SE
SL-16 R/B 4.1 01:43:02 19° N 01:43:02 19° N 01:45:31 10° NNE
Cosmos 2333 Rocket 3.6 01:44:45 28° N 01:46:05 31° NNE 01:51:10 10° E
USA 229 4.2 01:48:04 46° N 01:48:11 46° N 01:55:18 10° ENE
USA 229 DEB 4.2 01:48:10 46° N 01:48:17 46° N 01:55:23 10° ENE
USA 234 3.1 01:42:46 10° E 01:49:20 81° N 01:49:33 80° NNW
Cosmos 2098 Rocket 4.0 01:49:34 61° NE 01:50:00 63° ENE 01:55:46 10° SSE
H-2A R/B 4.3 01:57:40 10° N 01:57:59 12° N 01:57:59 12° N
SL-4 R/B 4.4 02:04:25 15° ESE 02:04:25 15° ESE 02:05:12 10° E
COSMOS 2455 2.8 02:02:19 72° N 02:02:48 77° NE 02:08:51 10° SE
Cosmos 2360 Rocket 3.7 02:03:11 24° N 02:05:06 29° NNE 02:09:59 10° E
Cosmos 2237 Rocket 4.1 02:08:42 17° N 02:09:02 17° N 02:12:39 10° NE
Cosmos 540 Rocket 4.3 02:06:49 23° S 02:09:46 49° ESE 02:14:43 10° NE
ARGOS 3.9 02:09:29 10° NNE 02:13:05 41° N 02:13:05 41° N
NOSS 3-1 (C) 3.8 02:13:14 54° NW 02:15:01 83° NE 02:23:21 10° SE
SeaSat 1 3.5 02:12:07 10° NNE 02:15:10 35° N 02:15:10 35° N
Celestis-02/Orion 38 4.5 02:12:52 10° NE 02:17:58 81° ESE 02:18:29 71° S
Cosmos 1606 Rocket 4.3 02:19:21 39° NNE 02:20:37 52° ENE 02:24:57 10° SSE
Meteor 2-12 Rocket 4.4 02:16:41 10° S 02:22:48 84° E 02:28:56 10° NNE
IRS-1D 4.2 02:19:32 10° NNE 02:24:23 51° E 02:29:17 10° S
Cosmos 2322 Rocket 3.4 02:22:27 24° N 02:25:06 37° NE 02:30:22 10° ESE
Cosmos 2219 Rocket 3.8 02:23:27 20° N 02:26:02 28° NNE 02:30:53 10° E
RESURS DK-1 2.8 02:26:59 56° E 02:26:59 56° E 02:30:27 10° NE
Cosmos 2237 4.3 02:25:47 46° NNW 02:27:31 75° NE 02:33:13 10° SE
Cosmos 909 Rocket 4.2 02:24:24 38° SW 02:27:39 88° NW 02:34:16 10° NE
Resurs 1-4 Rocket 4.4 02:24:22 10° N 02:24:32 11° N 02:24:32 11° N
ATLAS 5 CENTAUR R/B 2.6 02:29:04 31° ENE 02:29:04 31° ENE 02:31:10 10° ENE
COSMO-SKYMED 1 2.5 02:27:37 10° SSE 02:31:43 73° ENE 02:31:43 73° ENE
Cosmos 1898 Rocket 3.4 02:32:28 54° NNW 02:33:43 85° ENE 02:38:58 10° SSE
ADEOS II 4.3 02:30:20 10° N 02:30:53 12° N 02:30:53 12° N
Cosmos 1346 Rocket 4.4 02:33:37 10° SSE 02:36:56 32° E 02:40:17 10° NNE
SJ-11-01 4.2 02:32:54 10° NNE 02:37:39 84° ESE 02:42:21 10° SSW
NOSS 3-4 (A) 3.1 02:37:38 54° WSW 02:38:59 84° NW 02:45:13 10° NE
NOSS 3-4 (C) 3.1 02:37:46 54° WSW 02:39:09 85° NW 02:45:23 10° NE
Aureole 1 Rocket 4.1 02:42:15 35° NW 02:45:20 69° WSW 02:52:40 10° SSE
ATLAS 3B R/B 3.5 02:42:27 32° NW 02:45:43 48° N 02:53:14 10° E
FengYun 1-2 T 4.2 02:41:14 10° NNE 02:46:55 84° WNW 02:52:36 10° SSW
Cosmos 1726 Rocket 3.7 02:46:35 24° N 02:49:17 71° ENE 02:53:36 10° SSE
SL-16 R/B 2.4 02:46:54 28° NNW 02:49:54 67° NE 02:55:33 10° SE
Cosmos 468 Rocket 4.3 02:46:30 10° SSW 02:51:42 66° ESE 02:56:53 10° NNE
CZ-2C R/B 3.1 02:48:00 10° N 02:51:46 37° NNW 02:51:46 37° NNW
DNEPR-1 R/B 3.4 02:52:16 62° SW 02:52:58 88° NW 02:57:14 10° NE
ACS3 Solar Sail 3.3 02:49:10 10° N 02:51:33 18° NNW 02:51:33 18° NNW
Cosmos 1833 Rocket 2.7 02:53:18 46° W 02:54:34 57° NW 03:00:10 10° NNE
Cosmos 2082 Rocket 3.0 02:50:55 10° S 02:56:20 52° ESE 03:01:47 10° NE
Cosmos 1484 Rocket 4.3 02:53:34 10° NNE 02:56:44 32° E 02:59:51 10° SSE
CZ-4 R/B 3.8 02:52:20 10° NNE 02:57:03 80° ESE 03:01:41 10° SSW
BREEZE-M DEB (TANK) 4.0 02:56:24 18° S 02:57:13 20° SSE 03:00:46 10° ESE
SWAS 4.1 02:58:34 68° WNW 02:59:00 80° SW 03:03:02 10° SSE
Cosmos 1933 3.3 02:59:39 55° SW 02:59:39 55° SW 03:02:50 10° S
Cosmos 2279 Rocket 4.3 02:58:02 35° NW 02:59:39 42° W 03:05:26 10° SSW
Tsikada Rocket 4.4 03:00:17 37° W 03:01:25 40° WNW 03:07:26 10° N
Cosmos 858 Rocket 4.5 02:58:41 27° NNW 03:01:38 80° ENE 03:06:49 10° SSE
Cosmos 1937 Rocket 3.3 03:01:14 34° NW 03:03:32 78° WSW 03:08:38 10° SSE
Meteor 2-20 4.5 03:01:59 10° N 03:08:11 82° ENE 03:14:17 10° SSE
Cosmos 1763 Rocket 3.4 03:05:08 25° SW 03:08:12 63° WNW 03:13:25 10° NNE
Cosmos 2278 3.8 03:07:54 23° NNW 03:11:33 79° NE 03:17:13 10° SE
Cosmos 2369 4.0 03:12:26 34° WNW 03:14:20 46° WSW 03:19:43 10° S
BREEZE-M DEB (TANK) 4.2 03:15:53 14° SSE 03:15:53 14° SSE 03:16:31 10° SSE
NOSS 2-1 (D) 3.9 03:15:43 35° SW 03:15:43 35° SW 03:19:31 10° SSE
ADEOS Rocket 4.4 03:09:50 10° N 03:15:42 26° NW 03:16:46 25° WNW
Cosmos 1980 Rocket 3.0 03:16:50 28° WSW 03:16:50 28° WSW 03:21:29 10° SSW
NOSS 2-1 (E) 3.6 03:17:54 40° SW 03:18:06 40° SW 03:22:01 10° SSE
NOSS 3-1 (A) 3.9 03:15:08 26° NW 03:19:18 90° SW 03:27:44 10° SE
Cosmos 372 Rocket 4.3 03:18:32 35° WNW 03:19:41 40° WSW 03:24:23 10° S
Cosmos 1536 Rocket 3.6 03:16:11 10° SSW 03:20:33 55° WNW 03:24:56 10° N
USA 59 Rocket 0.6 03:21:19 30° SW 03:21:24 30° SW 03:25:10 10° SSE
DMSP B5D1-3 4.4 03:21:04 10° S 03:26:10 70° WSW 03:31:18 10° NNW
SL-16 R/B 4.0 03:24:53 14° NNW 03:27:16 17° N 03:30:58 10° NE
Cosmos 2098 Rocket 4.4 03:26:40 29° WNW 03:27:25 30° W 03:32:19 10° SW
IGS 5A 3.8 03:26:39 10° NNE 03:30:38 64° E 03:34:36 10° S
Cosmos 2333 Rocket 2.2 03:26:46 19° NW 03:31:06 89° WSW 03:36:53 10° SSE
Meteor 2-20 Rocket 4.3 03:25:11 10° NNW 03:31:06 85° ENE 03:36:50 10° SSE
Cosmos 2058 Rocket 3.0 03:26:41 10° NNW 03:31:11 89° E 03:35:37 10° S
Cosmos 2221 4.2 03:28:02 10° N 03:31:47 31° ENE 03:35:30 10° SE
USA 234 3.3 03:25:48 10° ESE 03:32:24 87° SSW 03:36:53 23° WNW
Cosmos 2058 4.2 03:37:37 22° NNW 03:37:37 22° NNW 03:39:38 10° N
SL-4 R/B 2.3 03:38:08 24° SW 03:39:36 40° S 03:42:36 10° ESE
Helios 1A Rocket 4.2 03:36:53 10° SSW 03:38:15 18° SW 03:38:15 18° SW
Cosmos 2026 Rocket 3.9 03:33:52 10° S 03:39:56 87° E 03:46:05 10° NNE
NOSS 2-1 (C) 4.3 03:39:23 24° WSW 03:40:01 25° SW 03:43:30 10° S
USA 229 4.3 03:35:30 20° NW 03:40:21 55° NNE 03:47:58 10° E
USA 229 DEB 4.3 03:35:36 20° NW 03:40:27 55° NNE 03:48:03 10° E
Timation 1 Rocket 4.3 03:37:22 10° SW 03:43:19 70° NW 03:49:18 10° NE
Meteor 1-26 Rocket 4.1 03:42:15 10° NNW 03:47:41 71° W 03:53:13 10° S
COSMOS 2455 3.7 03:45:29 21° WNW 03:48:18 31° WSW 03:53:28 10° S
Cosmos 2360 Rocket 2.2 03:44:56 14° NW 03:49:50 88° NE 03:55:29 10° SSE
Cosmos 540 Rocket 3.9 03:46:39 10° WSW 03:51:25 38° NW 03:56:14 10° NNE
Cosmos 1553 Rocket 4.1 03:45:43 10° NNW 03:52:07 88° E 03:58:31 10° S
SeaSat 1 3.9 03:49:58 10° NNE 03:53:24 19° NNW 03:54:48 17° NW
Cosmos 1707 4.3 03:52:03 10° N 03:54:46 26° ENE 03:57:29 10° SE
Cosmos 2237 Rocket 3.8 03:50:31 10° NNW 03:55:07 25° NNE 03:59:42 10° E
Meteor 2-3 Rocket 3.7 03:50:44 10° SSW 03:56:29 71° WNW 04:02:12 10° NNE
Cosmos 1092 Rocket 4.0 03:52:58 10° SSW 03:59:16 80° WNW 04:05:33 10° N
Cosmos-2242 3.1 03:57:42 10° NNW 04:01:52 52° W 04:05:58 10° S
IRS-1D 4.1 03:58:59 10° N 04:03:23 33° WNW 04:07:50 10° WSW
RESURS DK-1 3.3 04:02:19 19° W 04:04:13 27° NW 04:07:41 10° NNE
Cosmos 841 Rocket 3.4 04:01:39 10° SW 04:06:53 70° WNW 04:12:09 10° NNE
COSMO-SKYMED 1 3.9 04:04:48 10° SW 04:07:32 17° W 04:08:03 17° W
Nadezhda 4 Rocket 4.3 04:02:03 10° SW 04:08:01 43° WNW 04:14:00 10° N
Cosmos 2322 Rocket 2.3 04:04:14 12° NW 04:09:33 67° WSW 04:15:11 10° SSE
ATLAS 5 CENTAUR R/B 1.6 04:08:34 19° WNW 04:10:25 35° NNW 04:13:49 10° NE
Cosmos 489 Rocket 4.4 04:04:20 10° SW 04:10:38 71° WNW 04:16:56 10° NNE
Cosmos 2219 Rocket 2.3 04:05:09 10° NNW 04:10:50 81° NE 04:16:30 10° SE
Cosmos 1346 Rocket 3.4 04:08:55 10° SW 04:12:12 29° WNW 04:15:30 10° N
Cosmos 1125 Rocket 3.9 04:08:11 10° NNW 04:13:29 63° ENE 04:18:40 10° SE
SL-08 R/B 3.5 04:09:04 10° SSE 04:13:39 74° ENE 04:18:20 10° NNW
Okean 1 3.5 04:13:52 10° NNW 04:17:13 38° W 04:20:32 10° SSW
Cosmos 1437 Rocket 3.2 04:14:38 10° N 04:18:03 53° ENE 04:21:26 10° SSE
KORONAS-FOTON 4.4 04:15:04 10° N 04:18:22 48° ENE 04:21:40 10° SSE
Cosmos 2333 4.2 04:12:52 10° NW 04:18:40 76° WSW 04:24:22 10° SSE
COSMOS 2406 3.2 04:14:20 10° SW 04:20:01 82° NW 04:25:45 10° NNE
Cosmos 1758 Rocket 3.9 04:15:47 10° S 04:20:12 71° E 04:24:36 10° NNE
SJ-12 3.8 04:20:30 10° NNE 04:24:20 85° ESE 04:28:09 10° SSW
NOSS 8 (A) 4.4 04:22:46 15° WNW 04:24:54 51° SW 04:27:53 10° SSE
Cosmos 1743 3.1 04:22:36 10° S 04:25:46 53° E 04:28:58 10° NNE
IRS-1C 4.4 04:21:43 10° NNE 04:27:05 78° ESE 04:32:24 10° SSW
COSMOS 2428 3.4 04:21:36 10° NNW 04:27:10 51° NE 04:32:43 10° ESE
Cosmos 1417 Rocket 4.5 04:23:18 10° NNW 04:29:28 87° W 04:35:37 10° S
Cosmos 1484 Rocket 3.4 04:26:36 10° N 04:29:34 27° WNW 04:32:30 10° WSW
CZ-2C R/B 4.3 04:27:52 10° NNW 04:29:40 12° NW 04:30:59 11° WNW
NOSS 3-4 (A) 3.9 04:25:05 10° W 04:30:30 44° N 04:36:49 10° ENE
NOSS 3-4 (C) 3.9 04:25:13 10° W 04:30:40 44° N 04:36:58 10° ENE
SAR-Lupe-4 3.5 04:27:56 10° NNE 04:31:31 78° WNW 04:35:04 10° SSW
SMAP 3.0 04:26:52 10° NNE 04:31:31 68° WNW 04:36:08 10° SSW
SPOT 1/Viking Rocket 4.5 04:27:17 10° NNE 04:32:23 53° E 04:37:27 10° S
Cosmos 1238 Rocket 3.2 04:30:29 10° N 04:33:25 43° ENE 04:36:11 10° SSE
SL-16 R/B 3.1 04:28:45 10° NW 04:33:39 31° WSW 04:38:32 10° SSW
Cosmos 2266 Rocket 4.5 04:30:03 10° S 04:36:25 70° E 04:42:44 10° NNE
SAR-Lupe-1 4.0 04:32:55 10° NNE 04:36:34 80° WNW 04:40:10 10° SSW
Cosmos 192 4.3 04:32:08 10° NNW 04:37:07 84° WSW 04:42:01 10° SSE
ATLAS 3B R/B 3.2 04:29:41 10° NW 04:37:37 71° NNE 04:45:17 10° ESE
ARIANE 5 R/B 2.6 04:33:11 10° NNE 04:38:24 85° WNW 04:43:38 10° SSW
Landsat 7 3.7 04:33:52 10° NNE 04:38:32 71° WNW 04:43:09 10° SSW
Cosmos 1833 Rocket 3.9 04:35:17 10° WNW 04:39:42 23° NNW 04:44:08 10° NNE
IRIDIUM 104 4.4 04:34:38 10° SSW 04:39:45 56° W 04:44:56 10° N
Cosmos 220 Rocket 4.2 04:35:58 10° SW 04:39:49 41° NW 04:43:46 10° NNE
Cosmos 2082 Rocket 2.5 04:35:13 10° WSW 04:40:34 43° NW 04:45:57 10° NNE
DNEPR-1 R/B 4.4 04:36:51 10° W 04:40:40 31° NNW 04:44:32 10° NE
Cosmos 1733 1.5 04:38:43 10° SSW 04:40:45 59° WNW 04:42:49 10° N
Orbus 7S? 4.2 04:39:31 10° W 04:41:44 23° SW 04:44:04 10° SSE
YAOGAN 1 3.7 04:38:34 10° NNE 04:42:43 47° E 04:46:50 10° S
MOS 1 Rocket 3.6 04:40:08 10° NNE 04:45:29 80° WNW 04:50:51 10° SSW
Cosmos 1626 Rocket 3.6 04:41:27 10° SSW 04:45:50 62° WNW 04:50:14 10° N
Cosmos 1892 Rocket 4.5 04:43:11 10° WSW 04:46:54 26° WNW 04:50:39 10° N
COBE Rocket 3.9 04:44:14 10° SSE 04:48:52 80° ENE 04:53:30 10° NNW
Okean 1-7 Rocket 4.2 04:45:23 10° S 04:49:51 65° E 04:54:19 10° NNE
Cosmos 2285 Rocket 4.4 04:43:51 10° NW 04:49:54 48° WSW 04:55:58 10° S
CZ-2D R/B 3.3 04:51:31 10° N 04:54:28 36° WNW 04:57:24 10° SW
YAOGAN 11 4.4 04:50:34 10° S 04:54:49 50° WSW 04:59:04 10° NNW
Meteor 1-10 Rocket 4.4 04:49:04 10° NNW 04:54:55 72° W 05:00:48 10° S
AQUARIUS 4.1 04:51:25 10° N 04:55:49 64° WNW 05:00:10 10° SSW
